Regional Weather Roundup
Issued by NWS

Home | Current Version | Previous Version | Text Only | Print | Product List | Glossary Off
Versions: 1 2 3 4 5 6 7 8 9 10 11 12 13 14 15 16 17 18 19 20 21 22 23 24 25 26 27 28 29 30 31 32 33 34 35 36 37 38 39 40 41 42 43 44 45 46 47 48 49 50

000
ASUS45 KBOU 010907
RWRCO

WEATHER ROUNDUP FOR COLORADO
NATIONAL WEATHER SERVICE DENVER/BOULDER CO
200 AM MST SUN MAR 01 2015

NOTE: "FAIR" INDICATES FEW OR NO CLOUDS BELOW 12000 FEET WITH NO
SIGNIFICANT WEATHER AND/OR OBSTRUCTIONS TO VISIBILITY.

COZ001>005-013-030-031-011000-
...NORTHWEST COLORADO...

CITY           SKY/WX    TMP DP  RH WIND       PRES   REMARKS
CRAIG            N/A     23  20  88 MISG      29.99R
HAYDEN         CLOUDY    21  18  86 W14       29.96R WCI   8
MEEKER         CLOUDY    27  24  89 SW5       29.95R WCI  22
MOUNT WERNER   NOT AVBL
STEAMBOAT SPGS CLOUDY    25  24  96 SW3       29.94R VSB 1
WALDEN         CLOUDY    14  10  85 N12       29.90R WCI   0
$$

COZ006>008-011-011000-
...WEST CENTRAL VALLEYS...

CITY           SKY/WX    TMP DP  RH WIND       PRES   REMARKS
GRAND JUNCTION MOCLDY    27  26  96 CALM      29.97R
MONTROSE       PTCLDY    28  27  96 SE7       30.01R WCI  21
EAGLE          CLOUDY    28  28 100 E7        29.96R WCI  21
RIFLE          MOCLDY    32  26  78 S3        29.96R
DELTA          MOCLDY    35  33  89 E7        30.00R WCI  30
NUCLA          FOG       32  30  93 SE3       30.03R VSB 1/2
$$

COZ017>023-064>068-011000-
...SOUTHWEST COLORADO...

CITY           SKY/WX    TMP DP  RH WIND       PRES   REMARKS
DURANGO        FOG       29  28  96 E3        30.01R VSB 1/2
CORTEZ         CLOUDY    27  26  96 NE3       30.00R
PAGOSA SPRINGS CLOUDY    30  30 100 S3        30.02R
TELLURIDE      LGT SNOW  27  22  82 NW5       30.01R WCI  22
WOLF CREEK PAS CLOUDY    16  16 100 SW24G44   29.99R WCI  -3
$$

COZ009-010-012-014-032>034-037-058>063-011000-
...CENTRAL COLORADO...

CITY           SKY/WX    TMP DP  RH WIND       PRES   REMARKS
ASPEN          LGT SNOW  26  24  92 CALM      29.94R FOG
BUENA VISTA    CLOUDY    19  17  90 CALM      29.95R
COPPER MTN     LGT SNOW  18  10  73 W17G30    29.89R WCI   2
BERTHOUD PASS  LGT SNOW  10   3  72 W18G32    29.88R WCI  -8
COTTONWOOD PAS FLURRIES  23  21  93 S5        29.92R WCI  17
GUNNISON       PTCLDY    19  16  86 N3        30.00R
KREMMLING      FLURRIES  21  18  86 N3        29.93R
LEADVILLE      LGT SNOW  17  14  88 CALM      29.91R FOG
SALIDA         CLOUDY    17  14  88 CALM      30.04R
SUNLIGHT       LGT SNOW  21  19  93 CALM        N/A
WILKERSON PASS CLOUDY    16  12  86 SW8G18    29.92R FOG     WCI   5
$$

COZ069>075-011000-
...SAN LUIS VALLEY/SANGRE DE CRISTO MOUNTAINS...

CITY           SKY/WX    TMP DP  RH WIND       PRES   REMARKS
ALAMOSA        MOCLDY    18  15  88 CALM      29.98R
LA VETA PASS   CLOUDY    23  21  93 S21       29.92S WCI   8
SAGUACHE       PTCLDY    18  14  86 N6        30.00R WCI   9
$$

COZ035-036-038>040-011000-
...NORTHERN COLORADO FRONT RANGE...

CITY           SKY/WX    TMP DP  RH WIND       PRES   REMARKS
DENVER INTL AP PTCLDY    11   7  84 S5        30.03R WCI   3
DMNS CITY PARK   N/A     16  11  81 S5        30.04R WCI   9
AURORA         PTCLDY     9   7  89 S5        30.02R WCI   1
FRONT RANGE AP NOT AVBL
ERIE MUNI ARPT MOCLDY    15  14  94 CALM      30.05R FOG
BOULDER MUN AP CLOUDY    19  19 100 CALM      30.04R FOG
CENTENNIAL     PTCLDY    11   7  84 S5        30.00R WCI   3
BROOMFIELD     MOCLDY    19  18  93 CALM      30.02R
FORT COLLINS   MOCLDY    19  14  79 N5        30.07R WCI  13
LONGMONT       CLOUDY    20  18  91 CALM      30.07R FOG
$$

COZ041-046-047-076>085-087-088-011000-
...PIKES PEAK/PALMER DIVIDE AND SOUTHERN FOOTHILLS...

CITY           SKY/WX    TMP DP  RH WIND       PRES   REMARKS
COLO. SPRINGS  PTCLDY    12  10  92 CALM      30.00S FOG
A. F. ACADEMY  CLOUDY    12   9  85 N7        29.97R WCI   2
ELLICOTT       NOT AVBL
FALCON         CLOUDY    14  13  94 NW5       29.97R FOG     WCI   7
FORT CARSON    PTCLDY    10   8  90 NW6       30.00R WCI   0
LIMON          PTCLDY     2   0  91 NW5       30.03S WCI  -8
MONUMENT HILL  PTCLDY     5   3  92 SW5       29.94S WCI  -4
TRINIDAD       CLOUDY    15  12  88 E5        30.01S WCI   8
$$

COZ042>045-048>051-090-091-011000-
...NORTHEAST COLORADO...

CITY           SKY/WX    TMP DP  RH WIND       PRES   REMARKS
GREELEY ARPT   MOCLDY    18  10  73 N6        30.07R WCI   9
AKRON          MOCLDY    15  12  88 CALM      30.07R
BURLINGTON     CLOUDY    19  14  81 S7        30.09F WCI  10
WRAY           CLOUDY    19  16  87 CALM      30.14S
STERLING       PTCLDY    19  16  86 CALM      30.11R
HOLYOKE        NOT AVBL
FORT MORGAN    PTCLDY    17  14  88 N6        30.09R WCI   9
$$

COZ086-089-092>099-011000-
...SOUTHEAST COLORADO...

CITY           SKY/WX    TMP DP  RH WIND       PRES   REMARKS
PUEBLO         PTCLDY    12   9  87 SE6       30.07R WCI   3
LA JUNTA       PTCLDY    13  10  88 W7        30.10S WCI   3
LAMAR          PTCLDY    16  15  96 SW3       30.12R
SPRINGFIELD      N/A     11   9  92 NW6       30.09R WCI   1
$$



USA.gov is the U.S. government's official web portal to all federal, state and local government web resources and services.